Regional Weather Roundup
Issued by NWS

Home | Current Version | Previous Version | Text Only | Print | Product List | Glossary On
Versions: 1 2 3 4 5 6 7 8 9 10 11 12 13 14 15 16 17 18 19 20 21 22 23 24 25 26 27 28 29 30 31 32 33 34 35 36 37 38 39 40 41 42 43 44 45 46 47 48 49 50
388
ASUS44 KOUN 060610
RWROK

WEATHER ROUNDUP FOR OKLAHOMA
NATIONAL WEATHER SERVICE NORMAN OK
1200 AM CST TUE DEC 06 2016

NOTE: "FAIR" INDICATES FEW OR NO CLOUDS BELOW 12,000 FEET WITH NO
      SIGNIFICANT WEATHER AND/OR OBSTRUCTIONS TO VISIBILITY.

OKZ001>007-009>012-014-015-017-060700-
NORTHWEST OKLAHOMA AND THE PANHANDLE

CITY           SKY/WX    TMP DP  RH WIND       PRES   REMARKS
GAGE           PTCLDY    37  34  89 N12       29.78R WCI  29
6HR MIN TEMP:  34; 6HR MAX TEMP:  47;

GUYMON         CLEAR     34  14  43 N25G31    29.87R WCI  21
ENID/WOODRING  CLEAR     32  32 100 CALM      29.74S FOG
$$

OKZ016-021>023-033>039-044-045-060700-
SOUTHWEST OKLAHOMA

CITY           SKY/WX    TMP DP  RH WIND       PRES   REMARKS
LAWTON/REGL    MOCLDY    41  40  96 E7        29.67S FOG
6HR MIN TEMP:  36; 6HR MAX TEMP:  47;

LAWTON/FT SILL FOG       41  41 100 SE5       29.66S VSB 1
FREDERICK      CLEAR     40  39  97 E9        29.62S FOG     WCI  34
CLINTON        FOG       37  35  92 N9        29.71R VSB 1/4 WCI  30
HOBART         CLEAR     40  39  97 E8        29.67R WCI  34
ALTUS AFB      CLEAR     41  39  93 E7        29.64R
$$

OKZ018>020-024>031-060700-
CENTRAL OKLAHOMA

CITY           SKY/WX    TMP DP  RH WIND       PRES   REMARKS
OKLAHOMA CITY  MOCLDY    42  40  92 NE3       29.73R
6HR MIN TEMP:  39; 6HR MAX TEMP:  45;

OKC/WILEY POST PTCLDY    43  41  93 CALM      29.74R
OKC/TINKER AFB CLOUDY    45  43  91 CALM      29.72R
STILLWATER     CLOUDY    42  41  96 CALM      29.75R
GUTHRIE        CLOUDY    43  42  97 CALM      29.74S
$$

OKZ008-013-054>072-060700-
NORTHEAST OKLAHOMA

CITY           SKY/WX    TMP DP  RH WIND       PRES   REMARKS
TULSA          CLOUDY    44  42  93 N5        29.76R
6HR MIN TEMP:  44; 6HR MAX TEMP:  47;

TULSA/JONES    CLOUDY    42  40  92 CALM      29.76R FOG
PONCA CITY     PTCLDY    32  29  88 CALM      29.76R FOG
BARTLESVILLE   MOCLDY    40  38  93 CALM      29.77S
MUSKOGEE       CLOUDY    45  43  93 SE5       29.75R
$$

OKZ032-040>043-046>053-073>077-060700-
SOUTH CENTRAL/SOUTHEAST OKLAHOMA

CITY           SKY/WX    TMP DP  RH WIND       PRES   REMARKS
ARDMORE/DWNTWN CLOUDY    46  45  93 S3        29.72R
MCALESTER      CLOUDY    45  42  89 CALM      29.73F
$$





USA.gov is the U.S. government's official web portal to all federal, state and local government web resources and services.